Weather History for Concordia, KS

Change the Weather History Date:

Sunday, September 29, 2013

  Actual Average Record
Temperature  
Mean Temperature 63 °F 62 °F  
Max Temperature 77 °F 74 °F 96 °F (1994)
Min Temperature 48 °F 50 °F 29 °F (1984)
Degree Days  
Heating Degree Days 2 5  
Month to date heating degree days 14 65  
Since 1 July heating degree days 21 68  
Cooling Degree Days 0 2  
Month to date cooling degree days 240 157  
Year to date cooling degree days 1325 1323  
Growing Degree Days 12 (Base 50)    
Moisture  
Dew Point 42 °F    
Average Humidity 52    
Maximum Humidity 77    
Minimum Humidity 26    
Precipitation  
Precipitation 0.00 in 0.09 in 1.58 in (1941)
Month to date precipitation 1.13 2.82  
Year to date precipitation 24.70 23.92  
Snow  
Snow 0.00 in 0.00 in T in (1985)
Month to date snowfall 0.0 0.0  
Year to date snowfall 20.3 13.7  
Since 1 July snowfall 0.0 0.0  
Snow Depth 0.00 in    
Sea Level Pressure  
Sea Level Pressure 30.01 in    
Wind  
Wind Speed 11 mph (SSW)    
Max Wind Speed 20 mph    
Max Gust Speed 25 mph    
Visibility 8 miles    
Events      
T = Trace of Precipitation, MM = Missing Value Source: NWS Daily Summary

Daily Weather History Graph

Daily Weather History Graph

Search for Another Location

Airport:

Trip Planner

Search our weather history database for the weather conditions in past years. The results will help you decide how hot, cold, wet, or windy it might be!

Date:

Astronomy

Sep. 29, 2013 Rise Set
Actual Time 7:25 AM CDT 7:15 PM CDT
Civil Twilight 6:58 AM CDT 7:42 PM CDT
Nautical Twilight 6:27 AM CDT 8:13 PM CDT
Astronomical Twilight 5:55 AM CDT 8:45 PM CDT
Moon 2:08 AM CDT (9/29) 4:11 PM CDT (9/29)
Length of Visible Light 12h 44m
Length of Day
11h 50m
Waning Crescent, 27% of the Moon is Illuminated
Sep 29
Waning Crescent
Oct 4
New
Oct 11
First Quarter
Oct 18
Full
Oct 26
Last Quarter

Hourly Weather History & Observations

Time (CDT) Temp. Dew Point Humidity Pressure Visibility Wind Dir Wind Speed Gust Speed Precip Events Conditions
12:55 AM 52.0 °F 39.0 °F 61% 30.09 in 10.0 mi South 3.5 mph - N/A   Clear
1:55 AM 51.1 °F 39.9 °F 66% 30.09 in 10.0 mi South 4.6 mph - N/A   Clear
2:55 AM 53.1 °F 39.9 °F 61% 30.08 in 9.0 mi SSW 9.2 mph - N/A   Clear
3:55 AM 52.0 °F 41.0 °F 66% 30.08 in 6.0 mi SW 5.8 mph - N/A   Haze
4:55 AM 51.1 °F 41.0 °F 68% 30.07 in 6.0 mi SW 6.9 mph - N/A   Haze
5:55 AM 48.0 °F 41.0 °F 77% 30.07 in 7.0 mi SSW 8.1 mph - N/A   Clear
6:55 AM 50.0 °F 39.9 °F 68% 30.07 in 6.0 mi SSW 8.1 mph - N/A   Haze
7:55 AM 52.0 °F 42.1 °F 69% 30.08 in 4.0 mi SW 9.2 mph - N/A   Haze
8:55 AM 57.9 °F 44.1 °F 60% 30.08 in 6.0 mi SW 9.2 mph - N/A   Haze
9:55 AM 62.1 °F 45.0 °F 53% 30.09 in 3.0 mi SW 8.1 mph - N/A   Haze
10:55 AM 68.0 °F 42.1 °F 39% 30.07 in 5.0 mi SSW 12.7 mph - N/A   Haze
11:41 AM 70.0 °F 43.0 °F 38% 30.08 in 2.5 mi SW 10.4 mph - N/A   Haze
11:55 AM 70.0 °F 43.0 °F 38% 30.06 in 3.0 mi SSW 11.5 mph - N/A   Haze
12:55 PM 73.0 °F 42.1 °F 33% 30.02 in 8.0 mi South 11.5 mph - N/A   Clear
1:55 PM 75.0 °F 41.0 °F 29% 29.98 in 10.0 mi South 13.8 mph - N/A   Clear
2:55 PM 75.9 °F 39.9 °F 27% 29.95 in 10.0 mi SSW 12.7 mph - N/A   Clear
3:55 PM 77.0 °F 39.9 °F 26% 29.92 in 10.0 mi South 17.3 mph 23.0 mph N/A   Clear
4:55 PM 75.9 °F 39.0 °F 26% 29.91 in 10.0 mi South 13.8 mph - N/A   Clear
5:55 PM 73.9 °F 39.0 °F 28% 29.90 in 10.0 mi South 11.5 mph - N/A   Clear
6:55 PM 69.1 °F 42.1 °F 38% 29.89 in 10.0 mi SSE 10.4 mph - N/A   Clear
7:55 PM 60.1 °F 44.1 °F 55% 29.91 in 10.0 mi South 10.4 mph - N/A   Clear
8:55 PM 61.0 °F 43.0 °F 52% 29.90 in 10.0 mi South 10.4 mph - N/A   Clear
9:55 PM 61.0 °F 44.1 °F 54% 29.89 in 10.0 mi South 11.5 mph - N/A   Clear
10:55 PM 59.0 °F 44.1 °F 58% 29.90 in 10.0 mi South 11.5 mph - N/A   Clear
11:55 PM 57.0 °F 45.0 °F 64% 29.90 in 10.0 mi South 12.7 mph - N/A   Clear